Погода в Яшкуле

Погода в Яшкуле : погода сейчас, прогноз погоды и архив. Всё, что Вы хотите узнать о погоде в Яшкуле!

Хотите узнать прогноз погоды в Яшкуле? Тогда Вам сюда: Погода в Яшкуле

Поиск расширенной информации на нашем сайте:

Другие новости

Новости СМИ2

Главная страница сайта

Новости сайта

03.07.2017

Напоминаем, что на нашем специализированном сайте Метеоцентр.Азия вы можете получить высокодетализированные автоматические прогнозы погоды по пунктам России, СНГ и мира в авиационном формате (включающие направление и скорость ветра, видимость, явления погоды, количество и форму облачности, нижнюю и верхнюю границу облачности).

Рекомендуем: Одн-2003 - противогололедные материалы.

Погода в Яшкуле - сегодня

Время (UTC), дата Ветер
(°,м/с) 
Видим.   Явления Облачность Т
(°С)
Тd
(°С)
f(%) Тe
(°С)
Pmin
(гПа)
dP
(гПа)
Po
(мм)
O2
(г/м3)
Тmin Tmax R s Состояние
почвы
00 19.09.17 090 (В) 20000 м    ясно 
+18.2 +13.6 75 +25  1014.3  -0.5  761  285           
03 19.09.17 080 (В) 20000 м    ясно 
+17.4 +14.3 82 +25  1014.4  0.1  761  286  +17.2        сухая 
06 19.09.17 120 (ЮВ) 6-10{12}  20000 м    ясно 
+27.4 +14.6 46 +35  1014.2  -0.2  761  276           
09 19.09.17 140 (ЮВ) 7-11{14}  20000 м    ясно 
+31.9 +11.4 28 +35  1013  -1.3  760  272           
12 19.09.17 130 (ЮВ) 6-12{13}  20000 м    ясно 
+33.1 +12.3 28 +37  1012  -1  760  271           
15 19.09.17 100 (В) 5{12}  20000 м    ясно 
+29.9 +9 27 +30  1012.4  0.4  760  274    +33.6       
18 19.09.17 120 (ЮВ) 20000 м    ясно 
+24.9 +14.8 53 +33  1013.4  761  278           
21 19.09.17 110 (В) 20000 м    ясно 
+21.6 +17.6 78 +35  1013.1  -0.3  760  280           
00 20.09.17 100 (В) 20000 м    ясно 
+19.8 +18.2 90 +35  1013  0.1  760  281           
03 20.09.17 110 (В) 20000 м    10/0 средняя 
[Ac As]
+19.4 +18.3 93 +34  1013.5  0.4  761  282  +18.8         
06 20.09.17 150 (ЮВ) 0500 м  туман  ?/?  
+20.9 +20.2 96 +39  1014.4  761  280           
09 20.09.17 140 (ЮВ) 20000 м  {туман}  ясно 
+30.2 +17.6 47 +43  1013.6  -0.9  761  272           
12 20.09.17 080 (В) 20000 м    ясно 
+33.2 +12.6 29 +38  1012.6  -1  760  271           
15 20.09.17 340 (С) 20000 м    ясно 
+31.2 +12.1 31 +35  1012.5  0.1  760  273    +34.2       
18 20.09.17 110 (В) 20000 м    ясно 
+25.4 +17.6 62 +38  1013.7  1.2  761  277           
21 20.09.17 100 (В) 20000 м    ясно 
+21.8 +18.5 82 +37  1013.8  1.2  761  280           
00 21.09.17 100 (В) 20000 м    ясно 
+20.8 +19 89 +37  1014  0.2  761  280           
03 21.09.17 110 (В) 20000 м    ясно 
+19.2 +18.1 93 +34  1015  762  283  +19.2        сухая 
06 21.09.17 100 (В) 20000 м    ясно 
+25.7 +16.8 58 +37  1015.5  0.5  762  277  +19.2         
09 21.09.17 110 (В) 5{10}  20000 м    ясно 
+33.2 +0.7 13 +33  1014.6  -1  762  273           
12 21.09.17 100 (В) 7-11{13}  20000 м    ясно 
+34.2 -0.3 11 +34  1013.6  -0.9  761  272           
15 21.09.17 100 (В) 4{12}  20000 м    ясно 
+29.9 -0.8 14 +30  1013.8  0.2  761  276    +34.4       
18 21.09.17 090 (В) 20000 м    ясно 
+24.4 +2.9 25 +24  1014.7  0.2  762  281           
21 21.09.17 090 (В) 20000 м    ясно 
+20.7 +11.1 54 +23  1014.7  762  283           
00 22.09.17 060 (СВ) 20000 м    ясно 
+17.2 +12.3 73 +22  1014.4  -0.3  761  286           
Время (UTC), дата Ветер
(°,м/с) 
Видим.   Явления Облачность Т
(°С)
Тd
(°С)
f(%) Тe
(°С)
Pmin
(гПа)
dP
(гПа)
Po
(мм)
O2
(г/м3)
Тmin Tmax R s Состояние
почвы

Для получения пояснительной информации подведите курсор к названию столбца.

ПОГОДА в Яшкуле - архив

Всё, что Вы хотите узнать о погоде в Яшкуле - удобно и подробно!

Выберите нужную дату (начиная с 1 января 2015* года) и нажмите кнопку "Найти".
Будут отображены архивные сводки погоды по пункту Яшкуль, начиная с указанной даты.


Отображать данные в формате CSV (для использования в таблицах Excel)


Внимание! Наш архив погоды предназначен исключительно для личного некоммерческого использования в познавательных целях. Если Вам необходимы официальные справки о состоянии погоды (для производственных, юридических, коммерческих и т.п. целей), обращайтесь в органы Росгидромета.

*Примечание: данная дата относится к архиву по метеостанциям СССР (Россия, СНГ, Балтия).
Архив по метеостанциям Зарубежной Европы и Азии (кроме Китая) хранится 10 дней, по другим регионам земного шара (Китай, Африка, Америка, Австралия, Океания) - 1 день.

Яшкуль - район местоположения метеостанции


Название, широта, долгота, высота метеостанции:
Яшкуль 46.2°ш. 45.3°д. -7 м над ур. моря [Российская Федерация]

Дополнительная информация

В oтличие oт бoльшинства пoгoдных сайтoв мы публикуем пoдрoбную метеoинфoрмацию в детальнoм прoфессиoнальнoм фoрмате.

Характеристики температуры и влажнoсти вoздуха измеряются на высoте 2 м в тени вдали oт зданий и деревьев.
Скoрoсть ветра измеряется на высoте 10 м (на урoвне рoста челoвека скoрoсть ветра ниже в 1.5-2 раза). Если метеoстанция нахoдится в гoрoде или в лесу, тo скoрoсть ветра занижена на 2-4 м/с пo сравнению с oткрытым местoм. Скoрoсть ветра над акватoриями крупных рек и oзёр, а также на вершинах хoлмoв на 2-5 м/с выше, чем в oбычных услoвиях.
Атмoсфернoе давление в разных тoчках местнoсти мoжет значительнo oтличаться oт давления на метеoстанции, в зависимoсти oт услoвий рельефа (при пoдъёме на 10 м давление пoнижается примернo на 1 мм рт.ст.).